Weather in Kuzemino

Russia / Kostroma Oblast     59°13′31″N   42°30′30″E
temp.,
°C
wind,
m/s
gust,
m/s
humid.,
%
clouds,
%
prec.,
mm/h
press.,
hPa
HPBL,
m
9 may, sun
sun900:00+9ese41169100 0.0 1006430
03:00+8se41291100 1.1 1005581
06:00+9sse41196100 1.4 1004784
09:00+10sse4996100 2.2 1004557
12:00+10sw2598100 5.6 1005385
15:00+7nnw4896100 11.4 1009474
18:00+5nnw51195100 1.9 1012608
21:00+5nnw41190100 3.1 1015797
10 may, mon
mon1000:00+3nnw41291100 0.0 1018651
03:00+2nnw41291100 0.0 1021520
06:00+3nnw311882 0.0 1024379
09:00+8n46603 0.0 10251087
12:00+11n34415 0.0 10261576
15:00+13n23385 0.0 10271747
18:00+12nnw114897 0.0 1028850
21:00+7ssw116126 0.0 102910
11 may, tue
tue1100:00+5ssw11678 0.0 103010
03:00+4ssw117111 0.0 103110
06:00+7ssw126652 0.0 103282
09:00+13ssw234729 0.0 1032548
12:00+17ssw224260 0.0 1031952
15:00+19ssw11425 0.0 10311085
18:00+18s125532 0.0 1030119
21:00+11sse117014 0.0 103110
12 may, wed
wed1200:00+10sse227546 0.0 103116
03:00+8ese117935 0.0 103210
06:00+11ese247111 0.0 1032110
09:00+16ese24485 0.0 1031581
12:00+20se34341 0.0 1030926
15:00+22sse23420 0.0 10291175
18:00+21ese23585 0.0 1028131
21:00+15ese238064 0.0 102840
13 may, thu
thu1300:00+14se258635 0.0 102991
03:00+12ese268983 0.0 1028102
06:00+15ese38815 0.0 1028229
09:00+20se475811 0.0 1027698
12:00+23sse574326 0.0 10262365
15:00+23s474328 0.0 10241829
18:00+22sse375221 0.0 1023681
21:00+16se38756 0.0 1023156